Regional Weather Roundup
Issued by NWS Sioux Falls, SD

Home | Current Version | Previous Version | Graphics & Text | Print | Product List | Glossary On
Versions: 1 2 3 4 5 6 7 8 9 10 11 12 13 14 15 16 17 18 19 20 21 22 23 24 25 26 27 28 29 30 31 32 33 34 35 36 37 38 39 40 41 42 43 44 45 46 47 48 49 50
000
ASUS43 KFSD 231402
RWRFSD

WEATHER ROUNDUP FOR SE SOUTH DAKOTA/SW MINNESOTA/NW IOWA
NATIONAL WEATHER SERVICE SIOUX FALLS SD
900 AM CDT SAT JUL 23 2016

NOTE: "FAIR" INDICATES FEW OR NO CLOUDS BELOW 12,000 FEET WITH NO
SIGNIFICANT WEATHER AND OR OBSTRUCTIONS TO VISIBILITY.


SDZ038>040-050-052>070-231500-
SOUTHEAST SOUTH DAKOTA

CITY           SKY/WX    TMP DP  RH WIND       PRES   REMARKS
BROOKINGS      RAIN      69  67  93 E7        29.85S
CHAMBERLAIN    CLOUDY    76  73  88 SE8       29.80R
HURON          CLOUDY    72  69  90 SE6       29.78R
MADISON        LGT RAIN  68  68 100 NE12      29.85F
MITCHELL       CLOUDY    73  70  90 E9        29.79S
SIOUX FALLS    LGT RAIN  73  70  90 NE6       29.85R
WINNER         FAIR      78  64  61 SW3       29.81R
YANKTON        CLOUDY    75  70  83 SE8       29.84R
$$

MNZ071-072-080-081-089-090-097-098-231500-
SOUTHWEST MINNESOTA

CITY           SKY/WX    TMP DP  RH WIND       PRES   REMARKS
FAIRMONT       CLOUDY    77  73  88 S14G20    29.86F
JACKSON        CLOUDY    77  70  78 S12       29.90R
LUVERNE        LGT RAIN  72  70  94 CALM      29.84R
MARSHALL       CLOUDY    71  69  93 E5        29.84S
MONTEVIDEO     TSTM      68  68 100 W7G13     29.91F
PIPESTONE      CLOUDY    73  72  94 NE3       29.84F
REDWOOD FALLS  CLOUDY    78  75  90 E6        29.84S
WINDOM         LGT RAIN  79  75  89 S12G18    29.85F
WORTHINGTON    LGT RAIN  77  76  96 SE10      29.86F FOG
$$

IAZ001>003-012>014-020>022-031-032-NEZ013-014-SDZ071-231500-
NORTHWEST IOWA

CITY           SKY/WX    TMP DP  RH WIND       PRES   REMARKS
CHEROKEE       CLOUDY    77  76  96 CALM      29.89R
DENISON        CLOUDY    79  72  78 S8        29.83F
ESTHERVILLE    CLOUDY    75  73  93 S14       29.89R
LE MARS        CLOUDY    79  75  89 SE8       29.85F
SHELDON        CLOUDY    77  77 100 SE15G22   29.84R FOG
SIOUX CITY     PTSUNNY   79  75  87 S9        29.82F
SPENCER        TSTM      77  73  87 SE10      29.86F FOG
STORM LAKE     CLOUDY    77  75  94 S5        29.90R
$$

ABBREVIATIONS USED IN REMARKS
   TC - TEMPERATURE IN CELSIUS
  WCI - WIND CHILL INDEX
   HX - HEAT INDEX
  VSB - VISIBILITY




USA.gov is the U.S. government's official web portal to all federal, state and local government web resources and services.